Regional Weather Roundup
Issued by NWS

Home | Current Version | Previous Version | Text Only | Print | Product List | Glossary Off
Versions: 1 2 3 4 5 6 7 8 9 10 11 12 13 14 15 16 17 18 19 20 21 22 23 24 25 26 27 28 29 30 31 32 33 34 35 36 37 38 39 40 41 42 43 44 45 46 47 48 49 50

000
ASUS43 KFSD 232202
RWRSD

WEATHER ROUNDUP FOR SOUTH DAKOTA
NATIONAL WEATHER SERVICE SIOUX FALLS SD
500 PM CDT THU OCT 23 2014

NOTE: "FAIR" INDICATES FEW OR NO CLOUDS BELOW 12,000 FEET WITH NO
SIGNIFICANT WEATHER AND/OR OBSTRUCTIONS TO VISIBILITY.


SDZ001>005-009-010-012>017-232300-
NORTHWEST AND NORTH CENTRAL SOUTH DAKOTA

CITY           SKY/WX    TMP DP  RH WIND       PRES   REMARKS
BUFFALO          N/A     67  22  18 SW13      29.82S
FAITH            N/A     63  31  30 S6        29.87F
MOBRIDGE       CLOUDY    71  36  27 SW10      29.84S
$$

SDZ012>016-024>037-041>051-057-063-072>074-232300-
SOUTHWEST AND SOUTH CENTRAL SOUTH DAKOTA

CITY           SKY/WX    TMP DP  RH WIND       PRES   REMARKS
RAPID CTY ARPT PTSUNNY   71  29  21 NW6       29.88R
PIERRE         PTSUNNY   70  31  23 S8        29.85F
CUSTER         MOSUNNY   63  25  23 W10       29.99S
ELLSWORTH AFB  PTSUNNY   69  33  26 N6        29.88R
PHILIP         CLOUDY    70  30  22 SW7       29.86S
PINE RIDGE     PTSUNNY   71  32  23 SW13      29.92F
SPEARFISH      FAIR      64  28  25 W7        29.93S
WINNER         FAIR      74  30  19 SW5       29.90S
$$

SDZ004>011-016>023-039-040-232300-
NORTHEAST SOUTH DAKOTA

CITY           SKY/WX    TMP DP  RH WIND       PRES   REMARKS
ABERDEEN       SUNNY     69  42  37 S12       29.86F
WATERTOWN      SUNNY     67  42  40 S10       29.92S
SISSETON         N/A     70  34  26 W12       29.87F
$$

SDZ017-020-022-023-036>040-048>070-232300-
SOUTHEAST SOUTH DAKOTA

CITY           SKY/WX    TMP DP  RH WIND       PRES   REMARKS
SIOUX FALLS    MOSUNNY   67  48  50 S12       29.95F
HURON          SUNNY     71  44  37 S12       29.88F
CHAMBERLAIN    PTSUNNY   67  36  31 SE5       29.89S
MITCHELL       SUNNY     73  37  27 SW8       29.90F
YANKTON        SUNNY     72  46  40 S12       29.94S
$$

ABBREVIATIONS USED IN REMARKS
   TC - TEMPERATURE IN CELSIUS
  WCI - WIND CHILL INDEX
   HX - HEAT INDEX
  VSB - VISIBILITY




USA.gov is the U.S. government's official web portal to all federal, state and local government web resources and services.